Погода в Перми

Погода в Перми : погода сейчас, прогноз погоды и архив. Всё, что Вы хотите узнать о погоде в Перми!

Хотите узнать прогноз погоды в Перми? Тогда Вам сюда: Погода в Перми

Поиск расширенной информации на нашем сайте:

Другие новости

Новости СМИ2

Главная страница сайта

Новости сайта

02.10.2013

Напоминаем, что на нашем новом сайте вы можете получить высокодетализированные прогнозы погоды по пунктам России, СНГ и мира (включающие важные для авиации метеовеличины, такие как направление и скорость ветра, видимость, явления погоды, количество и форма облачности, нижняя и верхняя граница облачности), а также ознакомиться с разнообразными материалами по авиационной метеорологии и подборкой полезных ссылок на эту тему.

Сайт Метеоцентр.Азия посвящён разработке технологий оптимизации авиаметеорологического обслуживания, включая проектирование и перспективное создание нескольких автоматизированных авиаметеорологических систем:
- система выпуска высокодетальных прогностических карт явлений погоды для нижнего воздушного пространства по России и ближнему зарубежью;
- система верификации прогнозов TAF (выпускаемых синоптиками официальных АМСГ РФ и ближнего зарубежья) и AUTOTAF (выпускаемых сайтом Метеоцентр.Азия) - выявление ошибок, онлайн-сопоставление с фактической погодой METAR, автоматическое внесение коррективов в прогнозы при резком отклонении фактической погоды от прогноза, подсчёт оправдываемости прогнозов по элементам и в целом;
- система обработки, анализа и отображения авиаметеорологической информации для применения провайдерами метеорологической информации.

Рекомендуем: Свежая информация - передние амортизаторы Daewoo Lanos - актуальная информация!

Погода в Перми - сегодня

Время (UTC), дата Ветер
(°,м/с) 
Видим.   Явления Облачность Т
(°С)
Тd
(°С)
f(%) Тe
(°С)
Pmin
(гПа)
dP
(гПа)
Po
(мм)
O2
(г/м3)
Тmin Tmax R s Состояние
почвы
09 22.04.17 210 (ЮЗ) 5-11{13}  20000 м    8/5 600 м верхняя 
[Sc|Cc]
+6.4 -8.4 34 +5  1009.5  742  293           
12 22.04.17 190 (Ю) 5-10{13}  20000 м    9/9 600 м 
[Sc]
+6.3 -7.4 37 +4  1008.9  -0.6  741  293           
15 22.04.17 190 (Ю) 3{10}  20000 м    10/3 600 м средняя 
[Sc|As trans]
+4.7 -6.5 44 +4  1007.8  -1.2  740  294    +7.3       
18 22.04.17 160 (Ю) 20000 м    10/10 2000 м 
[As trans]
+3.1 -5.5 53 +1  1007.1  -0.8  740  295           
21 22.04.17 090 (В) 10 км  слаб. снег  10/10 2000 м 
[Ns]
+1.6 -3.6 68 +2  1005.3  -1.9  738  296           
00 23.04.17 080 (В) 4000 м  слаб. снег  10/10 600 м 
[Ns]
-0 -1.4 90 +1  1003.2  -2.2  737  297           
03 23.04.17 080 (В) 10 км  слаб. дождь со снегом  10/10 600 м 
[Ns]
+0.8 -0.5 91 1001  -2  735  295  -0    <0.5  неравномерный
мокрый или
старый снег
100% 
06 23.04.17 140 (ЮВ) 4000 м  слаб. дождь{снег}  10/10 200 м 
[Frnb|Ns]
+2.1 +0.9 92 +3  1000.3  -0.5  735  294           
09 23.04.17 210 (ЮЗ) 20000 м  в посл. час ливневой дождь  10/10 600 м кучево-дожд. 
[Cb calv]
+3.9 +2 87 +3  1001.7  1.5  736  292           
12 23.04.17 210 (ЮЗ) 20000 м  {дождь}  10/10 600 м кучево-дожд. 
[Cb calv]
+4.3 +1.8 84 +3  1003.8  737  292           
15 23.04.17 210 (ЮЗ) 20000 м    10/10 600 м 
[Sc]
+4.2 +0.6 77 +3  1005.9  739  293    +4.6  0.7     
18 23.04.17 190 (Ю) 20000 м    5/5 600 м 
[Sc]
+2.9 -0.2 80 +2  1008.4  2.3  740  295           
21 23.04.17 180 (Ю) 20000 м    8/8 600 м 
[Sc]
+2 -0.4 84 +1  1009.3  0.8  741  296           
00 24.04.17 160 (Ю) 20000 м    3/0 верхняя 
[Ci fib]
+0.3 -1 91 1010.5  1.1  742  299           
03 24.04.17 160 (Ю) 20000 м    10/8 600 м верхняя 
[Sc|Ci sp]
+2.8 -0.1 81 +2  1011.6  1.3  743  296  -0.1      мокрый или
старый снег
10-40% 
06 24.04.17 150 (ЮВ) 20000 м    10/3 1000 м верхняя 
[Sc|Ci]
+9.8 -0.2 50 +9  1010.8  -0.3  743  289           
09 24.04.17 160 (Ю) 20000 м    10/3 1000 м средняя 
[Sc|Ac As]
+8.8 -1.8 47 +8  1010.6  -0.2  743  290           
12 24.04.17 120 (ЮВ) 4000 м  слаб. дождь  10/6 600 м средняя 
[Sc|As op]
+6.8 +4.4 85 +6  1008.8  -1.9  741  291           
15 24.04.17 090 (В) 4000 м  слаб. дождь  10/8 600 м средняя 
[Sc|As op]
+4.9 +3.6 91 +4  1007.1  -1.9  740  292    +10.3     
18 24.04.17 090 (В) 4000 м  слаб. дождь  10/10 200 м 
[Frnb|Ns]
+4.6 +3.4 92 +3  1003.6  -3.3  737  292           
21 24.04.17 090 (В) 4000 м  слаб. дождь  10/10 200 м 
[Frnb|Ns]
+4.7 +3.6 93 +4  999.2  -4.4  734  290           
00 25.04.17 150 (ЮВ) 4000 м  слаб. дождь{морось}  10/10 200 м 
[Frnb|Ns]
+6 +5.1 94 +4  996.1  -2.9  732  288           
03 25.04.17 170 (Ю) 4000 м  слаб. дождь  10/10 300 м 
[Frnb|Ns]
+6.7 +5.5 92 +5  996.8  0.8  732  287  +4.5    мокрый или
старый снег
10-40% 
06 25.04.17 190 (Ю) 7-14{14}  4000 м  дождь{морось}  10/10 300 м 
[Frnb|Ns]
+6.4 +4.3 86 +4  999.6  2.7  734  288           
09 25.04.17 200 (Ю) 7-15{18}  20000 м  в посл. час дождь{ливн. осадки}  10/10 300 м 
[Sc]
+4 +1.3 83 +1  1005.7  5.7  739  293           
Время (UTC), дата Ветер
(°,м/с) 
Видим.   Явления Облачность Т
(°С)
Тd
(°С)
f(%) Тe
(°С)
Pmin
(гПа)
dP
(гПа)
Po
(мм)
O2
(г/м3)
Тmin Tmax R s Состояние
почвы

Для получения пояснительной информации подведите курсор к названию столбца.

ПОГОДА в Перми - архив

Всё, что Вы хотите узнать о погоде в Перми - удобно и подробно!

Выберите нужную дату (начиная с 1 января 2015* года) и нажмите кнопку "Найти".
Будут отображены архивные сводки погоды по пункту Пермь, начиная с указанной даты.


Отображать данные в формате CSV (для использования в таблицах Excel)


Внимание! Наш архив погоды предназначен исключительно для личного некоммерческого использования в познавательных целях. Если Вам необходимы официальные справки о состоянии погоды (для производственных, юридических, коммерческих и т.п. целей), обращайтесь в органы Росгидромета.

*Примечание: данная дата относится к архиву по метеостанциям СССР (Россия, СНГ, Балтия).
Архив по метеостанциям Зарубежной Европы и Азии (кроме Китая) хранится 10 дней, по другим регионам земного шара (Китай, Африка, Америка, Австралия, Океания) - 1 день.

Пермь - район местоположения метеостанции


Название, широта, долгота, высота метеостанции:
Пермь (город) 58°ш. 56.3°д. 171 м над ур. моря [Российская Федерация]

Дополнительная информация

В oтличие oт бoльшинства пoгoдных сайтoв мы публикуем пoдрoбную метеoинфoрмацию в детальнoм прoфессиoнальнoм фoрмате.

Характеристики температуры и влажнoсти вoздуха измеряются на высoте 2 м в тени вдали oт зданий и деревьев.
Скoрoсть ветра измеряется на высoте 10 м (на урoвне рoста челoвека скoрoсть ветра ниже в 1.5-2 раза). Если метеoстанция нахoдится в гoрoде или в лесу, тo скoрoсть ветра занижена на 2-4 м/с пo сравнению с oткрытым местoм. Скoрoсть ветра над акватoриями крупных рек и oзёр, а также на вершинах хoлмoв на 2-5 м/с выше, чем в oбычных услoвиях.
Атмoсфернoе давление в разных тoчках местнoсти мoжет значительнo oтличаться oт давления на метеoстанции, в зависимoсти oт услoвий рельефа (при пoдъёме на 10 м давление пoнижается примернo на 1 мм рт.ст.).